Home   Weather   Miami   Past weeks
Flag for USA

Past Weather in Miami, Florida, USA — Yesterday and Last 2 Weeks

Now
88 °F

Scattered clouds.


Feels Like: 93 °F
Forecast: 88 / 78 °F
Wind: 10 mph from Southeast

Location: Miami International Airport

Current Time: Oct 23, 2019 at 5:30:28 pm

Latest Report: Oct 23, 2019 at 4:53 pm


Visibility: 10 mi

Pressure: 29.97 "Hg

Humidity: 55%

Dew Point: 70 °F

Location of MiamiLocation

Past Weather in Miami — Graph

°F

Miami Temperature Yesterday

Maximum temperature yesterday: 89 °F (at 12:53 pm)
Minimum temperature yesterday: 81 °F (at 12:53 am)
Average temperature yesterday: 84 °F

High & Low Weather Summary for the Past Weeks

 TemperatureHumidityPressure
High91 °F (Oct 16, 2:53 pm)94% (Oct 9, 12:53 am)30.07 "Hg (Oct 9, 12:53 am)
Low76 °F (Oct 11, 6:53 pm)50% (Oct 16, 2:53 pm)29.83 "Hg (Oct 19, 3:53 am)
Average82 °F73%29.95 "Hg
* Reported Oct 8 3:53 pm — Oct 23 3:53 pm, Miami. Weather by CustomWeather, © 2019

Note: Actual official high and low records may vary slightly from our data, if they occured in-between our weather recording intervals... More about our weather records

Advertising

Miami Weather History for the Previous 24 Hours

Scroll right to see more
 ConditionsComfort  
Time TempWeatherWind HumidityBarometerVisibility
3:53 pm
Wed, Oct 23
89 °FScattered clouds.6 mph52%29.97 "Hg10 mi
2:53 pm89 °FPassing clouds.14 mph53%29.98 "Hg10 mi
1:53 pm89 °FScattered clouds.10 mph53%29.98 "Hg10 mi
12:53 pm88 °FScattered clouds.8 mph55%30.01 "Hg10 mi
11:53 am89 °FBroken clouds.9 mph59%30.02 "Hg10 mi
10:53 am87 °FPartly sunny.6 mph61%30.01 "Hg10 mi
9:53 am86 °FScattered clouds.9 mph67%30.01 "Hg10 mi
8:53 am82 °FScattered clouds.5 mph79%30.00 "Hg10 mi
7:53 am80 °FScattered clouds.No wind85%29.99 "Hg10 mi
6:53 am79 °FPassing clouds.3 mph84%29.97 "Hg10 mi
5:53 am78 °FPassing clouds.No wind87%29.98 "Hg10 mi
4:53 am79 °FPassing clouds.No wind82%29.96 "Hg10 mi
3:53 am79 °FPassing clouds.3 mph82%29.96 "Hg10 mi
2:53 am80 °FPassing clouds.No wind79%29.97 "Hg10 mi
1:53 am80 °FClear.No wind79%29.98 "Hg10 mi
12:53 am80 °FClear.No wind79%30.00 "Hg10 mi
11:53 pm
Tue, Oct 22
82 °FLight rain. Partly cloudy.6 mph74%30.03 "Hg10 mi
10:53 pm84 °FPartly cloudy.6 mph72%30.03 "Hg10 mi
9:53 pm84 °FPartly cloudy.6 mph74%30.02 "Hg10 mi
8:53 pm83 °FPassing clouds.5 mph74%29.99 "Hg10 mi
7:53 pm84 °FPassing clouds.6 mph74%29.97 "Hg10 mi
6:53 pm85 °FPassing clouds.7 mph68%29.96 "Hg10 mi
5:53 pm87 °FPartly sunny.9 mph63%29.95 "Hg10 mi
Weather by CustomWeather, © 2019

See weather overview